This demonstration page uses our WeatherBlox Daily Observations layout. Learn more.

Left ArrowRight Arrow

34.74481, -87.66753

Hourly Observations for December 10, 2018

Temp ( °F °C ) Dew Point ( °F °C ) Humidity (%) Winds ( mph kmh ) Pressure ( in mb ) Visibility ( mi km ) Precip ( " mm )
12:12 am 00:12 Cloudy 38 3.3 34 1.1 86 86 NW 7 11 30.15 1021 10 16 0.00 0.00
12:53 am 00:53 Cloudy 38 3.3 33 0.6 83 83 NNW 8 13 30.15 1021 10 16 0.00 0.00
1:15 am 01:15 Cloudy 37 2.8 33 0.6 86 86 NNW 9 15 30.15 1021 10 16 0.00 0.00
1:49 am 01:49 Cloudy 37 3 32 0 81 81 NNW 7 11 30.15 1021 10 16 0.00 0.00
1:53 am 01:53 Cloudy 37 2.8 32 0 82 82 NNW 5 7 30.15 1021 10 16 0.00 0.00
2:53 am 02:53 Cloudy 37 2.8 32 0 82 82 NNW 8 13 30.16 1021 10 16 0.00 0.00
3:44 am 03:44 Cloudy 36 2.2 30 -1.1 79 79 N 7 11 30.18 1022 10 16 0.00 0.00
3:53 am 03:53 Cloudy 36 2.2 30 -1.1 79 79 N 8 13 30.16 1021 10 16 0.00 0.00
4:06 am 04:06 Cloudy 36 2.2 30 -1.1 79 79 NNW 8 13 30.18 1022 10 16 0.00 0.00
4:22 am 04:22 Cloudy 36 2.2 30 -1.1 79 79 N 7 11 30.18 1022 10 16 0.00 0.00
4:32 am 04:32 Cloudy 36 2.2 30 -1.1 79 79 VRB 7 11 30.18 1022 10 16 0.00 0.00
4:53 am 04:53 Cloudy 36 2.2 30 -1.1 79 79 N 7 11 30.17 1022 10 16 0.00 0.00
5:08 am 05:08 Cloudy 36 2.2 30 -1.1 79 79 NNW 7 11 30.21 1023 10 16 0.00 0.00
5:35 am 05:35 Cloudy 35 1.7 30 -1.1 82 82 N 6 9 30.21 1023 10 16 0.00 0.00
5:53 am 05:53 Cloudy 35 1.7 29 -1.7 78 78 N 6 9 30.19 1022 10 16 0.00 0.00
6:24 am 06:24 Cloudy 35 1.7 29 -1.7 78 78 NNW 7 11 30.21 1023 10 16 0.00 0.00
6:46 am 06:46 Cloudy 36 2.2 30 -1.1 79 79 N 8 13 30.24 1024 10 16 0.00 0.00
6:53 am 06:53 Cloudy 36 2.2 30 -1.1 79 79 VRB 5 7 30.21 1023 10 16 0.00 0.00
7:07 am 07:07 Cloudy 36 2.2 30 -1.1 79 79 NNW 7 11 30.24 1024 10 16 0.00 0.00
7:53 am 07:53 Cloudy 36 2.2 30 -1.1 79 79 N 7 11 30.22 1024 10 16 0.00 0.00
8:53 am 08:53 Cloudy 37 2.8 30 -1.1 76 76 N 9 15 30.25 1024 10 16 0.00 0.00
9:39 am 09:39 Cloudy with Light Snow 37 2.8 31 -0.6 79 79 N 5 7 30.30 1026 8 13 0.00 0.03
9:53 am 09:53 Cloudy with Light Snow 37 2.8 31 -0.6 79 79 N 6 9 30.26 1025 7 11 0.00 0.03
10:53 am 10:53 Cloudy with Light Snow 36 2.2 32 0 86 86 NNW 6 9 30.26 1025 5 8 0.02 0.51
11:31 am 11:31 Cloudy with Light Rain 37 2.8 33 0.6 86 86 VRB 6 9 30.27 1025 8 13 0.01 0.25
11:53 am 11:53 Cloudy with Light Rain 37 2.8 33 0.6 86 86 N 5 7 30.24 1024 8 13 0.02 0.51
12:18 pm 12:18 Cloudy with Light Rain 38 3.3 34 1.1 86 86 NNW 6 9 30.27 1025 10 16 0.01 0.25
12:27 pm 12:27 Cloudy with Light Rain 38 3.3 34 1.1 86 86 NNW 7 11 30.27 1025 10 16 0.02 0.51
12:53 pm 12:53 Cloudy with Light Rain 39 3.9 35 1.7 86 86 NNW 6 9 30.23 1024 10 16 0.02 0.51
1:25 pm 13:25 Cloudy with Light Rain 39 3.9 35 1.7 86 86 NW 7 11 30.21 1023 10 16 0.01 0.25
1:53 pm 13:53 Mostly Cloudy with Light Rain 39 3.9 35 1.7 86 86 NW 7 11 30.23 1024 10 16 0.01 0.25
2:53 pm 14:53 Mostly Cloudy 40 4.4 35 1.7 83 83 NW 8 13 30.24 1024 10 16 0.00 0.03
3:53 pm 15:53 Mostly Cloudy 41 5 35 1.7 79 79 WNW 5 7 30.25 1024 10 16 0.00 0.00
4:53 pm 16:53 Mostly Clear 40 4.4 35 1.7 83 83 NW 5 7 30.26 1025 10 16 0.00 0.00
5:53 pm 17:53 Clear 38 3.3 34 1.1 86 86 NNW 3 6 30.28 1026 10 16 0.00 0.00
6:53 pm 18:53 Clear 38 3.3 33 0.6 83 83 NNW 5 7 30.29 1026 10 16 0.00 0.00
7:53 pm 19:53 Clear 36 2.2 32 0 86 86 NNW 5 7 30.32 1027 10 16 0.00 0.00
8:53 pm 20:53 Clear 35 1.7 30 -1.1 82 82 NNW 5 7 30.33 1027 10 16 0.00 0.00
9:53 pm 21:53 Clear 32 0 29 -1.7 88 88 W 3 6 30.34 1027 10 16 0.00 0.00
10:53 pm 22:53 Clear 31 -0.6 29 -1.7 92 92 Calm 30.34 1028 10 16 0.00 0.00
11:53 pm 23:53 Clear 30 -1.1 27 -2.8 88 88 NW 5 7 30.35 1028 7 11 0.00 0.00

Powered by AerisWeather